Wind_Speed
21 21 21 21 20 20 20 19 18 18 18 16 16 16 15 15 14 13 12 12 12 12 11 11 11 11 11 11 10 9 8 8 8 8 8 8 9 8 7 7 6 6 6 7
21 23 23 23 22 22 21 20 19 20 19 18 17 16 16 16 14 14 14 13 13 13 12 12 11 11 11 11 11 10 9 9 9 9 8 8 8 7 7 6 6 6 7 7
21 23 24 23 23 22 22 21 20 21 20 19 18 17 17 17 16 15 15 15 14 13 12 12 11 12 11 11 11 11 10 10 10 10 9 8 8 7 7 7 7 7 7 7
22 22 23 23 23 22 22 22 22 22 21 20 19 17 18 18 17 16 16 15 14 13 12 12 12 12 12 12 11 11 10 11 11 11 10 9 8 8 8 8 8 8 8 8
22 22 21 22 23 23 23 23 23 22 21 21 21 20 19 19 18 17 16 16 15 15 14 13 13 13 13 13 12 11 11 10 11 11 10 9 9 9 8 8 9 8 8 9
24 23 23 22 23 23 23 23 23 22 22 23 22 21 20 20 19 19 18 17 17 16 15 15 14 14 14 13 12 11 11 11 11 10 9 9 9 9 8 8 9 9 9 10
24 24 24 23 23 24 23 22 22 22 22 22 22 23 21 21 19 19 19 18 18 17 16 16 15 15 14 13 12 12 11 11 11 11 10 9 9 9 10 10 10 10 10 11
24 24 25 24 24 24 23 23 23 21 20 21 23 24 21 21 19 20 20 19 18 17 17 17 16 16 15 14 13 13 12 12 12 12 12 11 10 10 11 11 11 11 12 11
24 25 25 24 24 24 24 24 23 23 22 22 23 23 21 20 19 19 19 19 18 18 18 18 18 17 16 15 14 13 13 13 12 13 13 13 11 11 12 11 12 13 13 13
25 26 25 24 24 24 25 24 24 24 23 22 23 22 20 20 19 19 19 19 19 19 19 18 18 18 17 16 15 14 14 14 14 13 13 13 13 13 13 12 12 12 13 13
24 25 25 25 24 24 25 25 26 26 26 23 21 21 21 20 19 20 20 20 20 20 20 19 19 18 18 17 16 16 16 15 14 14 14 14 15 14 13 13 12 13 13 13
24 24 25 25 25 25 25 25 26 27 27 26 23 22 21 20 19 20 20 20 20 21 20 20 19 18 18 18 18 17 17 16 15 16 15 15 15 15 15 14 13 13 14 13
24 24 24 23 25 25 26 25 26 27 27 27 25 23 23 21 20 20 20 20 21 21 20 20 19 19 18 18 18 18 17 16 16 17 17 16 16 16 16 15 14 14 15 14
25 25 25 24 24 26 26 26 26 26 26 27 25 23 23 22 22 21 21 21 21 21 20 19 19 19 19 19 19 18 17 17 17 17 16 16 15 15 15 16 16 15 15 15
24 25 26 26 26 26 27 27 27 27 27 26 26 24 24 23 22 22 22 22 21 21 20 19 19 20 20 20 20 19 18 17 17 17 17 17 17 16 16 16 16 16 16 16
24 24 25 25 26 27 26 26 26 27 27 26 26 25 24 23 22 21 21 22 22 22 22 21 20 21 21 21 21 21 20 19 18 17 17 17 18 18 18 17 17 18 17 17
23 23 23 23 23 25 26 25 25 26 25 25 25 24 24 23 23 22 21 21 23 23 23 22 22 22 22 22 23 23 22 21 20 19 19 18 19 19 20 19 19 19 19 18
23 23 23 22 23 24 25 25 25 25 25 24 24 24 24 23 23 22 22 22 22 23 23 23 22 22 23 22 23 23 23 22 21 20 20 20 20 21 21 21 20 20 20 19
23 24 23 22 23 24 25 24 24 25 26 25 24 24 25 24 23 23 23 23 23 23 24 23 22 22 22 23 24 24 23 23 22 22 22 22 22 21 21 21 21 21 21 20
21 23 23 23 23 23 24 24 25 26 26 25 25 25 25 25 25 24 24 24 24 24 24 23 23 23 24 24 25 25 25 24 23 22 23 23 22 22 22 22 22 22 22 21
21 21 22 23 23 23 25 25 25 26 27 26 25 25 26 26 26 25 25 26 26 26 25 24 24 24 24 24 24 24 25 24 23 23 23 22 22 22 23 23 23 23 22 22
20 21 22 23 24 25 24 25 25 26 27 27 26 25 25 26 26 26 26 27 27 27 26 26 25 25 25 24 24 24 24 23 23 22 23 23 23 24 24 23 23 23 23 22
19 20 21 22 23 24 25 25 24 24 25 25 26 26 25 25 25 26 27 27 27 27 27 27 27 26 26 26 25 25 25 25 24 24 24 24 23 24 24 24 24 23 23 23
20 20 22 22 22 23 24 24 24 24 24 24 25 25 25 25 25 25 26 26 27 27 27 27 27 27 27 27 25 24 24 25 25 25 25 25 24 23 23 24 23 23 24 23
21 22 22 23 23 23 24 24 23 23 23 24 24 25 24 24 25 26 26 26 27 27 27 27 27 26 26 26 26 25 24 24 24 24 24 24 24 23 22 22 22 22 22 23
21 23 24 23 23 24 24 24 23 22 22 22 23 24 24 24 24 25 25 26 26 26 26 26 26 26 26 25 24 24 24 23 23 23 23 23 23 23 23 22 22 22 23 23
Wind_Direction
234 233 234 235 235 235 237 239 243 244 249 251 253 254 256 259 260 263 267 270 276 275 274 270 268 270 274 274 276 281 287 295 300 304 308 309 311 315 313 316 314 319 321 323
235 235 235 235 236 238 239 242 244 246 249 251 253 255 256 256 258 260 261 263 270 274 271 266 265 268 271 269 271 278 282 287 293 298 304 305 306 309 308 305 305 311 315 318
235 237 237 237 238 239 242 242 244 247 250 252 254 257 257 256 258 257 258 263 267 272 273 270 266 266 268 271 270 273 280 285 288 293 298 298 300 301 303 305 303 305 309 312
238 238 238 238 238 240 242 242 244 248 250 251 252 253 258 256 255 256 259 261 261 263 265 267 265 262 265 270 271 271 276 280 283 289 290 288 292 292 297 300 300 299 303 308
241 240 240 240 240 240 242 243 245 247 248 248 251 250 253 255 254 256 258 258 257 259 261 263 265 264 264 267 270 272 276 279 281 286 286 284 288 290 293 297 294 296 301 307
241 241 242 242 242 242 243 244 246 247 248 247 248 251 250 253 252 252 256 257 256 257 257 259 261 264 263 263 264 269 276 279 281 280 281 283 286 290 291 295 299 295 296 300
241 241 241 242 243 243 243 242 245 248 248 249 249 250 250 251 248 251 255 256 256 255 256 259 258 260 261 258 260 264 272 276 277 277 274 277 282 287 290 292 295 297 294 295
241 242 242 241 242 244 243 240 240 242 246 249 251 252 251 253 249 249 251 252 252 254 255 257 259 259 259 259 262 265 271 275 274 272 269 268 276 283 283 287 291 293 294 294
239 241 242 242 242 242 241 239 240 244 246 247 251 254 253 254 251 249 249 249 249 252 253 254 255 256 259 262 264 266 269 272 274 272 270 269 272 277 283 283 291 290 289 291
241 242 241 242 241 240 240 241 240 241 245 249 253 255 254 254 252 246 246 248 251 252 252 254 255 257 258 259 260 262 266 271 273 273 271 268 271 277 279 286 294 293 291 291
242 242 242 242 242 243 242 241 241 242 244 247 253 256 254 254 251 248 246 247 250 252 252 254 255 258 256 255 259 262 265 268 270 271 274 276 277 276 279 284 290 293 296 299
242 242 243 244 245 244 244 243 244 244 245 247 249 254 255 255 252 250 249 248 249 252 253 253 254 255 253 255 259 261 264 266 268 270 271 274 277 276 277 280 286 293 298 301
240 241 244 245 247 246 244 243 243 244 246 247 248 253 256 254 252 250 250 250 250 252 253 250 251 251 251 252 254 258 262 265 266 269 269 270 274 276 275 275 283 294 298 298
241 242 241 241 243 245 244 242 241 241 243 246 247 250 253 253 251 250 250 251 253 255 255 254 252 251 250 251 252 256 260 263 264 266 265 266 271 275 277 279 285 292 295 295
242 243 242 242 242 244 245 243 242 242 242 244 246 248 251 251 250 249 250 250 250 252 253 252 252 252 250 251 252 255 258 261 263 263 264 265 268 271 274 278 283 289 293 295
243 244 244 245 244 244 243 242 243 243 243 244 245 247 248 249 248 247 248 249 249 251 251 250 252 252 250 250 252 253 257 261 262 262 265 268 270 271 273 277 282 285 290 295
244 245 245 245 244 244 244 242 243 244 243 244 246 246 247 246 244 245 246 248 249 251 253 252 252 252 251 251 253 254 255 257 260 261 263 267 268 270 272 275 278 281 286 293
244 244 246 247 245 244 245 243 242 242 242 243 244 245 245 245 244 243 245 247 247 249 252 251 251 251 252 252 252 251 252 255 258 261 262 265 267 269 272 275 276 279 283 288
244 243 244 245 246 246 246 244 241 241 242 244 246 245 245 245 247 246 245 246 247 245 246 247 249 249 252 253 253 252 252 253 257 260 262 264 266 268 271 272 275 277 279 283
245 244 244 246 246 248 249 246 242 242 244 245 245 246 246 248 249 249 247 247 246 245 245 246 248 250 253 255 257 255 252 255 257 259 262 265 265 266 269 271 274 276 278 280
246 246 246 246 247 249 250 249 246 245 246 247 248 248 246 247 248 249 249 247 243 243 244 246 248 251 253 255 255 254 253 256 259 260 262 264 266 267 270 271 273 273 274 277
248 247 247 248 248 250 251 251 248 248 248 248 247 246 246 247 248 248 248 246 243 243 245 246 248 251 252 254 257 257 257 257 259 260 262 263 266 268 269 271 272 273 275 276
248 247 248 249 249 252 252 252 251 250 250 249 248 247 246 247 248 247 245 245 244 244 245 246 247 249 251 253 256 256 256 258 261 262 262 263 264 265 267 269 272 272 274 275
250 249 250 252 253 254 254 253 253 252 251 251 249 246 246 246 247 246 244 242 242 243 244 246 248 249 251 253 254 253 255 258 259 260 262 264 266 266 267 268 270 272 270 273
253 250 250 252 253 254 254 253 255 254 254 252 248 245 246 246 245 244 241 239 239 242 244 247 250 251 252 251 253 253 256 257 258 259 261 263 266 267 267 267 268 271 272 273
255 255 254 254 254 254 253 253 253 254 254 250 246 243 242 244 244 244 241 241 242 242 244 247 249 249 251 250 251 254 255 257 256 258 261 264 266 267 266 267 269 270 272 275
Height
5868 5872 5873 5875 5878 5880 5882 5884 5885 5886 5886 5888 5888 5889 5889 5889 5889 5889 5888 5888 5887 5887 5886 5886 5886 5886 5885 5885 5885 5884 5884 5883 5882 5881 5880 5879 5878 5877 5875 5874 5873 5872 5871 5870
5864 5866 5868 5870 5872 5874 5877 5879 5881 5881 5882 5884 5884 5885 5885 5885 5885 5885 5885 5885 5885 5884 5884 5883 5883 5883 5883 5883 5882 5882 5882 5881 5880 5879 5878 5877 5876 5875 5874 5873 5872 5871 5870 5868
5859 5862 5863 5865 5867 5870 5872 5874 5876 5877 5878 5879 5880 5882 5882 5881 5882 5882 5882 5882 5882 5881 5881 5880 5880 5880 5880 5880 5880 5880 5880 5879 5878 5877 5876 5876 5875 5874 5872 5871 5871 5870 5868 5867
5854 5856 5858 5860 5862 5864 5867 5869 5871 5872 5873 5875 5876 5878 5878 5878 5878 5878 5879 5879 5879 5878 5878 5878 5877 5877 5877 5877 5877 5877 5877 5877 5876 5875 5875 5874 5873 5872 5871 5870 5869 5868 5867 5866
5849 5851 5853 5855 5857 5859 5862 5863 5865 5867 5869 5870 5871 5873 5875 5874 5874 5875 5875 5875 5875 5876 5875 5875 5875 5875 5875 5875 5875 5875 5875 5874 5874 5873 5873 5872 5871 5870 5869 5868 5867 5866 5865 5864
5844 5846 5848 5850 5852 5854 5856 5858 5860 5861 5863 5865 5866 5868 5870 5869 5870 5871 5871 5871 5872 5872 5872 5872 5872 5872 5872 5872 5872 5872 5872 5872 5871 5871 5871 5870 5869 5868 5867 5866 5865 5864 5863 5862
5838 5840 5842 5844 5846 5848 5851 5854 5856 5857 5858 5860 5861 5862 5864 5864 5865 5866 5867 5867 5867 5868 5869 5868 5868 5869 5869 5869 5869 5869 5870 5869 5869 5868 5868 5867 5867 5866 5865 5864 5863 5862 5861 5860
5833 5835 5836 5838 5841 5843 5845 5848 5852 5854 5856 5857 5856 5856 5860 5859 5860 5861 5862 5862 5863 5864 5864 5865 5865 5865 5866 5866 5866 5866 5867 5866 5866 5866 5865 5865 5864 5863 5863 5862 5861 5860 5858 5857
5827 5830 5831 5833 5835 5837 5839 5842 5845 5848 5849 5850 5851 5852 5854 5854 5855 5856 5857 5858 5858 5859 5860 5861 5861 5861 5862 5862 5863 5863 5863 5863 5863 5863 5862 5862 5861 5860 5859 5859 5858 5856 5855 5854
5821 5823 5825 5827 5829 5831 5834 5836 5839 5840 5842 5844 5846 5847 5849 5849 5850 5851 5852 5853 5854 5854 5855 5856 5857 5857 5858 5858 5859 5859 5860 5860 5860 5859 5858 5858 5858 5857 5857 5856 5855 5853 5852 5850
5814 5817 5819 5821 5823 5825 5828 5830 5832 5834 5837 5839 5841 5845 5843 5843 5845 5846 5847 5848 5848 5850 5851 5852 5852 5853 5853 5854 5855 5855 5856 5856 5856 5856 5855 5855 5854 5854 5853 5852 5852 5850 5848 5846
5807 5810 5813 5815 5817 5819 5821 5823 5825 5828 5829 5832 5835 5840 5837 5838 5839 5840 5841 5842 5843 5844 5846 5847 5848 5848 5849 5850 5851 5851 5852 5852 5852 5852 5851 5851 5850 5850 5849 5849 5848 5847 5845 5843
5801 5804 5807 5809 5812 5813 5814 5817 5819 5821 5823 5825 5829 5833 5831 5832 5833 5835 5836 5837 5838 5839 5840 5841 5842 5843 5844 5845 5846 5846 5847 5848 5848 5847 5847 5847 5846 5846 5845 5845 5845 5843 5841 5839
5794 5797 5801 5804 5805 5805 5807 5810 5812 5814 5816 5819 5822 5825 5825 5826 5828 5829 5830 5831 5832 5833 5835 5836 5837 5838 5839 5840 5841 5842 5842 5843 5843 5843 5843 5842 5842 5842 5842 5841 5841 5840 5838 5836
5787 5790 5792 5794 5796 5798 5800 5802 5805 5807 5809 5812 5815 5817 5819 5820 5821 5823 5824 5825 5826 5828 5829 5830 5832 5832 5833 5834 5836 5837 5837 5838 5839 5839 5839 5839 5838 5838 5838 5838 5837 5836 5834 5832
5780 5783 5785 5787 5789 5791 5793 5796 5798 5800 5802 5805 5807 5810 5812 5813 5815 5817 5818 5819 5821 5822 5823 5824 5826 5827 5828 5829 5830 5831 5832 5833 5834 5834 5835 5834 5834 5834 5834 5833 5832 5831 5830 5828
5774 5776 5778 5780 5783 5784 5787 5789 5791 5793 5795 5798 5801 5804 5805 5807 5809 5810 5812 5813 5814 5816 5817 5819 5820 5821 5822 5823 5824 5825 5826 5828 5828 5829 5830 5830 5829 5829 5829 5828 5827 5826 5825 5824
5768 5770 5771 5774 5777 5778 5782 5783 5785 5787 5789 5791 5794 5796 5798 5800 5802 5804 5805 5807 5808 5809 5811 5812 5813 5815 5816 5817 5818 5819 5820 5822 5823 5823 5824 5824 5824 5824 5823 5823 5822 5821 5820 5819
5761 5763 5766 5768 5770 5772 5775 5776 5778 5781 5783 5785 5787 5789 5791 5794 5796 5797 5799 5800 5801 5803 5804 5806 5807 5809 5810 5811 5812 5813 5814 5815 5817 5817 5818 5818 5818 5818 5818 5817 5816 5815 5814 5813
5755 5757 5760 5762 5764 5766 5769 5769 5771 5775 5776 5778 5780 5782 5785 5787 5789 5791 5792 5793 5795 5796 5797 5799 5801 5802 5803 5804 5805 5807 5808 5809 5810 5811 5811 5811 5811 5811 5811 5811 5810 5809 5808 5808
5749 5751 5753 5755 5757 5759 5761 5762 5765 5769 5770 5771 5773 5775 5777 5779 5781 5783 5784 5785 5787 5789 5791 5793 5794 5795 5797 5798 5799 5799 5801 5802 5803 5804 5804 5804 5804 5804 5804 5804 5804 5803 5802 5801
5744 5746 5747 5749 5751 5754 5754 5755 5758 5760 5761 5763 5765 5767 5769 5771 5773 5774 5775 5777 5779 5781 5783 5785 5787 5788 5790 5791 5792 5793 5794 5795 5796 5797 5797 5797 5797 5798 5798 5797 5797 5796 5795 5795
5738 5741 5742 5744 5746 5746 5747 5748 5750 5752 5754 5756 5757 5760 5761 5763 5765 5766 5767 5769 5771 5774 5776 5778 5779 5781 5783 5784 5785 5786 5787 5788 5789 5790 5791 5791 5790 5790 5790 5790 5790 5789 5789 5788
5733 5734 5735 5736 5738 5739 5740 5742 5743 5745 5746 5748 5750 5752 5753 5755 5757 5758 5759 5761 5764 5766 5768 5771 5772 5774 5775 5777 5778 5779 5780 5781 5782 5783 5783 5784 5783 5783 5783 5783 5783 5782 5782 5781
5727 5727 5728 5729 5731 5733 5734 5735 5736 5738 5739 5740 5742 5744 5746 5747 5749 5751 5753 5755 5757 5759 5761 5763 5765 5767 5768 5769 5771 5772 5773 5774 5775 5775 5776 5776 5776 5777 5776 5776 5776 5776 5775 5775
5720 5720 5722 5723 5724 5725 5726 5727 5729 5730 5731 5733 5734 5737 5738 5740 5742 5744 5746 5748 5750 5752 5754 5756 5758 5760 5761 5763 5764 5765 5766 5767 5768 5768 5769 5769 5769 5769 5769 5769 5769 5769 5768 5768